• In Netherlands
  • List of Countries
  • For 7 days
  • Water Temperature
  • Satellite Maps
  • Weather Map
  • Weather Widgets
  • user-avatar
    Login

    Hourly Weather Melbourne

    Today, 29 April, Saturday

    Time Temperature Precipitation Wind Pressure Humidity
    00:00 +14°C° 0 mm 2 mps 764 mmHg 95%
    01:00 +13°C° 0 mm 3 mps 764 mmHg 95%
    02:00 +13°C° 0 mm 3 mps 764 mmHg 95%
    03:00 +14°C° 0 mm 2 mps 764 mmHg 95%
    04:00 +13°C° 0 mm 3 mps 764 mmHg 95%
    05:00 +13°C° 0.1 mm 3 mps 764 mmHg 95%
    06:00 +13°C° 0.1 mm 3 mps 764 mmHg 95%
    07:00 +14°C° 0.1 mm 2 mps 764 mmHg 95%
    08:00 +14°C° 0.2 mm 3 mps 765 mmHg 92%
    09:00 +16°C° 0.2 mm 3 mps 765 mmHg 90%
    10:00 +17°C° 0 mm 3 mps 765 mmHg 88%
    11:00 +17°C° 0.1 mm 3 mps 765 mmHg 85%
    12:00 +17°C° 0.1 mm 2 mps 765 mmHg 83%
    13:00 +18°C° 0.1 mm 2 mps 765 mmHg 81%
    14:00 +17°C° 0.1 mm 2 mps 765 mmHg 81%
    15:00 +17°C° 0.1 mm 2 mps 765 mmHg 82%
    16:00 +17°C° 0.1 mm 2 mps 765 mmHg 82%
    17:00 +16°C° 0 mm 2 mps 765 mmHg 85%
    18:00 +15°C° 0 mm 2 mps 765 mmHg 88%
    19:00 +15°C° 0 mm 1 mps 766 mmHg 90%
    20:00 +14°C° 0 mm 1 mps 766 mmHg 92%
    21:00 +13°C° 0 mm 1 mps 766 mmHg 94%
    22:00 +13°C° 0 mm 1 mps 766 mmHg 95%
    23:00 +12°C° 0 mm 1 mps 766 mmHg 95%

    Tomorrow, 30 April, Sunday

    Time Temperature Precipitation Wind Pressure Humidity
    00:00 +12°C° 0 mm 1 mps 766 mmHg 96%
    01:00 +12°C° 0 mm 1 mps 766 mmHg 96%
    02:00 +12°C° 0 mm 1 mps 766 mmHg 95%
    03:00 +11°C° 0 mm 1 mps 766 mmHg 95%
    04:00 +11°C° 0 mm 1 mps 766 mmHg 95%
    05:00 +11°C° 0 mm 1 mps 765 mmHg 95%
    06:00 +10°C° 0 mm 1 mps 765 mmHg 95%
    07:00 +10°C° 0 mm 1 mps 765 mmHg 95%
    08:00 +12°C° 0 mm 1 mps 765 mmHg 88%
    09:00 +14°C° 0 mm 1 mps 765 mmHg 81%
    10:00 +16°C° 0 mm 1 mps 765 mmHg 74%
    11:00 +18°C° 0 mm 1 mps 765 mmHg 68%
    12:00 +19°C° 0 mm 1 mps 764 mmHg 63%
    13:00 +20°C° 0 mm 1 mps 764 mmHg 57%
    14:00 +20°C° 0 mm 1 mps 764 mmHg 58%
    15:00 +19°C° 0 mm 1 mps 763 mmHg 60%
    16:00 +19°C° 0 mm 1 mps 763 mmHg 61%
    17:00 +16°C° 0 mm 1 mps 763 mmHg 69%
    18:00 +15°C° 0 mm 1 mps 763 mmHg 78%
    19:00 +13°C° 0 mm 1 mps 763 mmHg 86%
    20:00 +13°C° 0 mm 1 mps 763 mmHg 87%
    21:00 +13°C° 0 mm 2 mps 763 mmHg 88%
    22:00 +12°C° 0 mm 2 mps 763 mmHg 89%
    23:00 +12°C° 0 mm 2 mps 763 mmHg 89%

    Day after tomorrow, 1 May, Monday

    Time Temperature Precipitation Wind Pressure Humidity
    00:00 +12°C° 0 mm 2 mps 762 mmHg 89%
    01:00 +13°C° 0 mm 2 mps 762 mmHg 89%
    02:00 +12°C° 0 mm 3 mps 762 mmHg 88%
    03:00 +12°C° 0 mm 3 mps 761 mmHg 88%
    04:00 +12°C° 0 mm 3 mps 761 mmHg 87%
    05:00 +12°C° 0 mm 3 mps 761 mmHg 87%
    06:00 +12°C° 0 mm 3 mps 761 mmHg 87%
    07:00 +12°C° 0 mm 4 mps 761 mmHg 86%
    08:00 +13°C° 0 mm 4 mps 761 mmHg 81%
    09:00 +14°C° 0 mm 4 mps 761 mmHg 76%
    10:00 +16°C° 0 mm 5 mps 761 mmHg 71%
    11:00 +16°C° 0 mm 5 mps 760 mmHg 68%
    12:00 +17°C° 0 mm 5 mps 760 mmHg 65%
    13:00 +19°C° 0 mm 4 mps 759 mmHg 62%
    14:00 +19°C° 0 mm 4 mps 759 mmHg 63%
    15:00 +19°C° 0 mm 3 mps 759 mmHg 64%
    16:00 +19°C° 0 mm 3 mps 759 mmHg 65%
    17:00 +18°C° 0.2 mm 3 mps 759 mmHg 72%
    18:00 +17°C° 0.2 mm 3 mps 760 mmHg 79%
    19:00 +16°C° 0.2 mm 3 mps 760 mmHg 87%
    20:00 +14°C° 0.1 mm 3 mps 760 mmHg 88%
    21:00 +14°C° 0.1 mm 3 mps 761 mmHg 89%
    22:00 +14°C° 0.1 mm 3 mps 761 mmHg 90%
    23:00 +13°C° 0 mm 3 mps 761 mmHg 92%

    2 May, Tuesday

    Time Temperature Precipitation Wind Pressure Humidity
    00:00 +12°C° 0 mm 3 mps 762 mmHg 93%
    01:00 +11°C° 0 mm 3 mps 762 mmHg 94%
    02:00 +11°C° 0 mm 3 mps 762 mmHg 93%
    03:00 +11°C° 0 mm 3 mps 762 mmHg 93%
    04:00 +10°C° 0 mm 2 mps 762 mmHg 92%
    05:00 +10°C° 0 mm 2 mps 762 mmHg 92%
    06:00 +10°C° 0 mm 2 mps 763 mmHg 92%
    07:00 +9°C° 0 mm 2 mps 763 mmHg 92%
    08:00 +10°C° 0 mm 2 mps 764 mmHg 85%
    09:00 +12°C° 0 mm 2 mps 764 mmHg 77%
    10:00 +14°C° 0 mm 2 mps 764 mmHg 70%
    11:00 +15°C° 0 mm 2 mps 764 mmHg 64%
    12:00 +16°C° 0 mm 2 mps 763 mmHg 59%
    13:00 +17°C° 0 mm 2 mps 763 mmHg 53%
    14:00 +16°C° 0.1 mm 2 mps 763 mmHg 59%
    15:00 +14°C° 0.1 mm 3 mps 763 mmHg 65%
    16:00 +13°C° 0.1 mm 3 mps 763 mmHg 71%
    17:00 +12°C° 0.1 mm 3 mps 764 mmHg 76%
    18:00 +12°C° 0.1 mm 3 mps 765 mmHg 81%
    19:00 +12°C° 0.1 mm 2 mps 765 mmHg 87%
    20:00 +11°C° 0.1 mm 3 mps 766 mmHg 86%
    21:00 +11°C° 0.1 mm 3 mps 766 mmHg 85%
    22:00 +11°C° 0.1 mm 3 mps 767 mmHg 84%
    23:00 +10°C° 0 mm 2 mps 767 mmHg 84%

    3 May, Wednesday

    Time Temperature Precipitation Wind Pressure Humidity
    00:00 +10°C° 0 mm 2 mps 767 mmHg 84%
    01:00 +9°C° 0 mm 2 mps 768 mmHg 84%
    02:00 +9°C° 0 mm 2 mps 768 mmHg 84%
    03:00 +9°C° 0 mm 2 mps 768 mmHg 85%
    04:00 +8°C° 0 mm 2 mps 768 mmHg 86%
    05:00 +8°C° 0 mm 2 mps 768 mmHg 85%
    06:00 +8°C° 0 mm 2 mps 769 mmHg 84%
    07:00 +8°C° 0 mm 2 mps 769 mmHg 84%
    08:00 +10°C° 0 mm 2 mps 769 mmHg 79%
    09:00 +11°C° 0 mm 3 mps 770 mmHg 73%
    10:00 +12°C° 0 mm 3 mps 770 mmHg 68%
    11:00 +12°C° 0 mm 3 mps 770 mmHg 65%
    12:00 +13°C° 0 mm 3 mps 770 mmHg 61%
    13:00 +14°C° 0 mm 3 mps 770 mmHg 58%
    14:00 +13°C° 0 mm 3 mps 770 mmHg 59%
    15:00 +13°C° 0 mm 3 mps 769 mmHg 60%
    16:00 +13°C° 0 mm 3 mps 769 mmHg 61%
    17:00 +12°C° 0 mm 3 mps 770 mmHg 67%
    18:00 +12°C° 0 mm 2 mps 770 mmHg 73%
    19:00 +10°C° 0 mm 2 mps 771 mmHg 79%
    20:00 +9°C° 0 mm 2 mps 771 mmHg 81%
    21:00 +9°C° 0 mm 2 mps 772 mmHg 84%
    22:00 +8°C° 0 mm 2 mps 772 mmHg 87%
    23:00 +8°C° 0 mm 2 mps 772 mmHg 87%

    4 May, Thursday

    Time Temperature Precipitation Wind Pressure Humidity
    00:00 +8°C° 0 mm 2 mps 772 mmHg 88%
    01:00 +7°C° 0 mm 2 mps 772 mmHg 89%
    02:00 +7°C° 0 mm 2 mps 772 mmHg 89%
    03:00 +7°C° 0 mm 2 mps 772 mmHg 90%
    04:00 +6°C° 0 mm 2 mps 772 mmHg 91%
    05:00 +6°C° 0 mm 2 mps 772 mmHg 91%
    06:00 +5°C° 0 mm 2 mps 772 mmHg 91%
    07:00 +6°C° 0 mm 1 mps 773 mmHg 91%
    08:00 +8°C° 0 mm 1 mps 773 mmHg 81%
    09:00 +11°C° 0 mm 1 mps 773 mmHg 70%
    10:00 +13°C° 0 mm 1 mps 773 mmHg 60%
    11:00 +15°C° 0 mm 1 mps 772 mmHg 54%
    12:00 +16°C° 0 mm 1 mps 772 mmHg 49%
    13:00 +19°C° 0 mm 1 mps 771 mmHg 44%
    14:00 +18°C° 0 mm 1 mps 771 mmHg 46%
    15:00 +18°C° 0 mm 1 mps 771 mmHg 47%
    16:00 +18°C° 0 mm 1 mps 770 mmHg 49%
    17:00 +15°C° 0 mm 1 mps 771 mmHg 59%
    18:00 +12°C° 0 mm 1 mps 771 mmHg 68%
    19:00 +10°C° 0 mm 1 mps 771 mmHg 78%
    20:00 +10°C° 0 mm 1 mps 771 mmHg 80%
    21:00 +10°C° 0 mm 1 mps 771 mmHg 81%
    22:00 +9°C° 0 mm 1 mps 772 mmHg 83%
    23:00 +9°C° 0 mm 1 mps 771 mmHg 82%
    Show more